Briefing drone pour Dunieres

Rechercher une autre localisation

Conditions de vol :


Nous sommes le : Dimanche 25 septembre 2022
Il est 22:47 UTC (00:47 LT)

Lever de soleil : 05:06 UTC (07:06 LT)
Coucher de soleil : 18:02 UTC (20:02 LT)

Météo

L'essentiel des conditions de vol

VIGILANCE MÉTÉO FRANCE - Haute-Loire (43)
Vigilance Jaune : Orages
CARTE TEMSI
CARTES DES FRONTS
METAR de LFMH
LFMH 242230Z AUTO VRB02KT 9999 BKN048 BKN060 BKN160 13/11 Q1014

Date d'émission: 24/09/2022
Heure d'émission: 22:30 UTC
Vent: Variable 2 KT (4 km/h)
Visibilité horizontale: > 10 km
Plafond :
- Nuages morcelés à 4800ft (1463m)
- Nuages morcelés à 6000ft (1829m)
- Nuages morcelés à 16000ft (4877m)
Température: 13 °C
Point de rosée: 11 °C
Humidité: 88%
Pression (QNH): 1014 hPa
TAF de LFMH
LFMH 161901Z 1619/1712 CNL

Conditions prévues :

Heure d'émission : Bulletin éffectué le 16 à 19:00 UTC
Prévision : Valide du 16 a 19:00 UTC au 17 a 12:00 UTC
Nuages : à 0ft (0 m)
WEBCAM POUR DUNIERES

Réglementation

Voler en sécurité

CARTES AERONAUTIQUE 1/500.000
CARTE AZBA (Reseau basse altitude)
CARTES VAC (LFMH)
SUP AIP




Chargement des AIP...
NOTAM (DUNIERES + Terrain à proximité / FIR )




Chargement des NOTAMS...
CONTACT PREFECTURE 43


Avertissement : Les données mises à disposition sont indicatives. Oxygène Drone ne pourra être tenu responsable de dégâts causés aux biens et aux personnes.